Zurück zum Katalog

STARLINK-4760

AktivKommunikationVLEO
NORAD 53828·PAYLOAD·🇺🇸 United States

Gestartet Sep 19, 2022 von Cape Canaveral Space Force Station

Loading…

Nächste Überflüge (nächste 24 Stunden)

TLE

AktuellSource: CelesTrak SupGP

Epoche: Sep 14, 2026, 20:53 UTC

1 53828C 22114L   26257.87062500 -.00021804  00000+0 -62361-3 0  2570
2 53828  53.1587 166.7369 0001257 101.0353  61.5097 15.35420581    16

Verfolge STARLINK-4760 in Echtzeit mit AllMySat

Download on the App Store